Regional Weather Roundup
Issued by NWS Mt. Holly, NJ

Home | Current Version | Previous Version | Text Only | Print | Product List | Glossary On
Versions: 1 2 3 4 5 6 7 8 9 10 11 12 13 14 15 16 17 18 19 20 21 22 23 24 25 26 27 28 29 30 31 32 33 34 35 36 37 38 39 40 41 42 43 44 45 46 47 48 49 50
000
ASUS41 KPHI 162010
RWRPHI

REGIONAL WEATHER ROUNDUP
NATIONAL WEATHER SERVICE MOUNT HOLLY NJ
400 PM EDT TUE SEP 16 2014

NOTE:  "FAIR" INDICATES FEW OR NO CLOUDS BELOW 12,000 FEET WITH NO
SIGNIFICANT WEATHER AND/OR OBSTRUCTIONS TO VISIBILITY.

 * = STATION DOES NOT REPORT PRECIPITATION (E.G. RAIN, SNOW, ETC.)
        OR FOG.

NJZ015>026-162100-
SOUTHERN NEW JERSEY

CITY           SKY/WX    TMP DP  RH WIND       PRES   REMARKS
POMONA         MOSUNNY   73  56  54 N13       29.96S
RIO GRANDE*    MOSUNNY   73  54  49 NW7       29.97S
MILLVILLE      PTSUNNY   76  53  44 N13       29.96S
WRIGHTSTOWN    CLOUDY    69  56  65 N3        29.95F
MOUNT HOLLY    PTSUNNY   71  55  56 NW6       29.97S
TRENTON        CLOUDY    69  53  56 N6        29.97S

$$
NJZ001>014-162100-
NORTHERN NEW JERSEY

CITY           SKY/WX    TMP DP  RH WIND       PRES   REMARKS
SUSSEX         PTSUNNY   69  52  54 N6        29.99S
ANDOVER*         N/A     67  52  58 VRB3      29.99S
MORRISTOWN     CLOUDY    68  55  64 N6        29.98R
NEWARK         PTSUNNY   71  54  54 VRB6      29.96F
TETERBORO      CLOUDY    71  50  47 CALM      29.95F
CALDWELL       CLOUDY    69  50  50 NW8       29.98R
SOMERVILLE     CLOUDY    71  54  54 N5        29.96S
ALLAIRE*       PTSUNNY   64  55  72 NE6       29.98R
TOMS RIVER*    PTSUNNY   70  57  64 NE5       29.98S

$$
PAZ043-044-047-054-055-060>062-066>071-162100-
EASTERN PENNSYLVANIA

CITY           SKY/WX    TMP DP  RH WIND       PRES   REMARKS
PHILADELPHIA   PTSUNNY   74  54  49 N14       29.97F
NORTH PHILA    CLOUDY    74  51  44 NW7       29.98F
BLUE BELL      MOSUNNY   73  54  49 NW3       29.97S
DOYLESTOWN     CLOUDY    68  52  56 N7        29.98S
QUAKERTOWN*    CLOUDY    68  54  60 MISG      30.00S
POTTSTOWN      MOSUNNY   72  54  53 N8        30.00S
LANCASTER      MOSUNNY   70  49  47 NW8       30.00S
COATESVILLE    MOSUNNY   70  54  56 NW7       30.00S
READING        PTSUNNY   71  51  49 N13       29.99R
ALLENTOWN      CLOUDY    69  50  50 N9        29.99S
MOUNT POCONO   CLOUDY    61  47  59 NW9G17    30.02S
HAZLETON       CLOUDY    61  48  63 NW8       30.06R
WILKES BARRE   CLOUDY    63  47  55 N6        30.02S

$$
DEZALL-MDZ008-012-015-019-020-162100-
DELAWARE AND EASTERN MARYLAND

CITY           SKY/WX    TMP DP  RH WIND       PRES   REMARKS
WILMINGTON     CLOUDY    73  56  54 N7        29.98F
DOVER          PTSUNNY   75  57  54 N12       29.96R
GEORGETOWN     MOSUNNY   77  53  43 VRB7      29.97R
EASTON         MOSUNNY   75  57  53 N7        30.01F
PATUXENT       MOSUNNY   77  56  48 N13       29.97F
OCEAN CITY     PTSUNNY   79  56  45 N10       29.96S
WALLOPS ISLAND MOSUNNY   79  58  48 N14G20    29.97R
CAMBRIDGE      MOSUNNY   77  55  47 W6        29.97F
SALISBURY      MOSUNNY   78  56  46 NW8       29.97R

$$
PAZ001-021-NYZ056-072-MDZ011-DCZ001-162100-
OTHER NEARBY LOCATIONS

CITY           SKY/WX    TMP DP  RH WIND       PRES   REMARKS
HARRISBURG     PTSUNNY   71  49  45 NW10      30.00S
STATE COLLEGE  PTSUNNY   64  48  55 NW7       30.05F
WILLIAMSPORT   PTSUNNY   67  49  52 N3        30.01F
BINGHAMTON     PTSUNNY   60  46  59 W8        30.02F
NEW YORK CITY  CLOUDY    68  54  60 CALM      29.99S
BALTIMORE      PTSUNNY   73  52  47 NW10G18   29.99S
WASHINGTON DC  PTSUNNY   77  49  37 N15       30.00S

$$



USA.gov is the U.S. government's official web portal to all federal, state and local government web resources and services.